Location: Augustenthal
(51.7167°N, 10.2833°E)
Time: 01:34:40
(UTC+00:00)

ISS - Pass Details

Date: 25 September 2021
Orbit: 417 x 423 km, 51.6° (Epoch: 19 October)

Event Time Altitude Azimuth Distance (km) Brightness Sun altitude
Rises 19:43:37 0° 280° (W) 2,367 1.2 -23.6°
Reaches altitude 10° 19:45:43 10° 278° (W) 1,503 -0.1 -23.9°
Enters shadow 19:47:48 35° 270° (W) 704 -2.2 -24.1°
